Miscellaneous Local Product
Issued by NWS Hastings, NE

Home | Current Version | Previous Version | Graphics & Text | Print | Product List | Glossary On
Versions: 1 2 3 4 5 6 7 8 9 10 11 12 13 14 15 16 17 18 19 20 21 22 23 24 25 26 27 28 29 30 31 32 33 34 35 36 37 38 39 40 41 42 43 44 45 46 47 48 49 50
000
AXUS43 KGID 282102
MISGRI

GID CWA HOURLY WEATHER ROUNDUP
NATIONAL WEATHER SERVICE HASTINGS NE
300 PM CST SAT FEB 28 2015

NOTE: "FAIR" INDICATES FEW OR NO CLOUDS BELOW 12,000 FEET WITH NO
SIGNIFICANT WEATHER AND/OR OBSTRUCTIONS TO VISIBILITY.

...SOUTH CENTRAL NEBRASKA...

CITY           SKY/WX    TMP DP  RH WIND       PRES   REMARKS
GRAND ISLAND   CLOUDY    25  12  58 S13       30.26F WCI  14
HASTINGS       CLOUDY    21  13  71 S10       30.25F WCI  10
KEARNEY        CLOUDY    25  10  54 S12G17    30.22F WCI  14
ORD            CLOUDY    30   8  39 SW10G21   30.19F WCI  21
YORK           LGT SNOW  23  16  74 S10       30.30F WCI  12
AURORA         CLOUDY    23  13  67 SW12      30.27F WCI  11
LEXINGTON      PTSUNNY   27  12  52 SW8       30.18F WCI  19
HOLDREGE       CLOUDY    22  12  66 S9        30.21F WCI  12
HEBRON         FLURRIES  21  14  72 S9        30.33F WCI  11

...NEBRASKA PANHANDLE...

CITY           SKY/WX    TMP DP  RH WIND       PRES   REMARKS
CHADRON        SUNNY     27  14  58 SW3       30.08F
ALLIANCE       SUNNY     29   9  43 VRB6      30.02F WCI  23
SCOTTSBLUFF    SUNNY     32  11  41 E5        30.02F WCI  27
SIDNEY         SUNNY     25  12  58 SE5       30.01F WCI  19

...WESTERN AND NORTH CENTRAL NEBRASKA...

CITY           SKY/WX    TMP DP  RH WIND       PRES   REMARKS
VALENTINE      PTSUNNY   33  10  38 VRB5      30.09F WCI  29
AINSWORTH      SUNNY     31  10  42 W12       30.11F WCI  21
ONEILL         PTSUNNY   31  11  43 SW12G21   30.17F WCI  22
BROKEN BOW     CLOUDY    31  11  43 S12       30.15F WCI  22
IMPERIAL         N/A     25   9  50 S3        30.08F
NORTH PLATTE   MOSUNNY   28  10  46 S8        30.13F WCI  20
MCCOOK         CLOUDY    27  12  53 S9        30.15F WCI  18

...EASTERN NEBRASKA...

CITY           SKY/WX    TMP DP  RH WIND       PRES   REMARKS
NORFOLK        PTSUNNY   30  11  45 SW16G24   30.25F WCI  19
SO SIOUX CITY  CLOUDY    27  14  58 S15       30.32F WCI  15
COLUMBUS       CLOUDY    25   9  50 S13G21    30.31F WCI  13
ALBION         MOSUNNY   29   9  42 SW9G21    30.24F WCI  21
OMAHA EPPLEY   LGT SNOW  22  16  78 S13       30.39F FOG     WCI  10
OFFUTT AFB     LGT SNOW  22  17  80 S9        30.38F FOG     WCI  12
MILLARD        LGT SNOW  23  17  78 S8        30.38F WCI  14
LINCOLN        LGT SNOW  23  17  78 S8        30.36F WCI  14
NEBRASKA CITY  LGT SNOW  23  16  75 S7        30.37F WCI  14
BEATRICE       LGT SNOW  22  16  78 S9        30.35S WCI  12
FALLS CITY     LGT SNOW  23  17  78 S10       30.40S WCI  12

...NORTHERN KANSAS...

CITY           SKY/WX    TMP DP  RH WIND       PRES   REMARKS
GOODLAND       LGT SNOW  18  12  77 SE6       30.07F WCI  10
HILL CITY      CLOUDY    20  13  74 SE7       30.22F WCI  11
NORTON         CLOUDY    21  12  68 S7        30.19F WCI  13
PHILLIPSBURG   CLOUDY    25  16  68 SE7       30.26F WCI  17
SMITH CENTER   CLOUDY    19  14  79 SE8       30.29S WCI   9
BELOIT         PTSUNNY   21  16  79 S8        30.32F WCI  12
HAYS           CLOUDY    19   7  58 SE9       30.25F WCI   9
RUSSELL        CLOUDY    20  14  77 S10       30.26F WCI   9
CONCORDIA      LGT SNOW  20  15  81 S8        30.33F WCI  10
SALINA         FLURRIES  22  16  78 S6        30.35F WCI  14
TOPEKA         LGT SNOW  23  18  81 SE7       30.41S WCI  15



USA.gov is the U.S. government's official web portal to all federal, state and local government web resources and services.